This is the latest recevied weather packets stored in our database for station/object KG7FOQ-13. If no packets are shown the sender has not sent any weather packets the latest 10 day(s).
| Time | Temp. | Humidity | Pressure | Rain* | Wind** | Luminosity | Snow |
|---|---|---|---|---|---|---|---|
| 1788453872 | 17.22° C | 48% | 1014.7 hPa | 0 mm | - | - | - |
| 1788453572 | 16.67° C | 49% | 1014.7 hPa | 0 mm | - | - | - |
| 1788453271 | 16.67° C | 51% | 1014.7 hPa | 0 mm | - | - | - |
| 1788452971 | 16.67° C | 52% | 1014.7 hPa | 0 mm | - | - | - |
| 1788452670 | 16.67° C | 55% | 1014.8 hPa | 0 mm | - | - | - |
| 1788452370 | 16.11° C | 57% | 1014.7 hPa | 0 mm | - | - | - |
| 1788452069 | 15.56° C | 56% | 1014.8 hPa | 0 mm | - | - | - |
| 1788451769 | 15.56° C | 57% | 1014.8 hPa | 0 mm | - | - | - |
| 1788451468 | 15.56° C | 59% | 1014.8 hPa | 0 mm | - | - | - |
| 1788451168 | 15° C | 61% | 1014.8 hPa | 0 mm | - | - | - |
| 1788450867 | 15° C | 62% | 1014.8 hPa | 0 mm | - | - | - |
| 1788450565 | 14.44° C | 63% | 1014.8 hPa | 0 mm | - | - | - |
| 1788450264 | 14.44° C | 64% | 1014.8 hPa | 0 mm | - | - | - |
| 1788449662 | 13.89° C | 64% | 1014.9 hPa | 0 mm | - | - | - |
| 1788449362 | 13.89° C | 66% | 1014.9 hPa | 0 mm | - | - | - |
| 1788449061 | 13.33° C | 66% | 1014.9 hPa | 0 mm | - | - | - |
| 1788448797 | 13.33° C | 66% | 1015 hPa | 0 mm | - | - | - |
| 1788448760 | 13.33° C | 66% | 1015 hPa | 0 mm | - | - | - |
| 1788448460 | 13.33° C | 66% | 1015 hPa | 0 mm | - | - | - |
| 1788448159 | 13.33° C | 67% | 1015 hPa | 0 mm | - | - | - |
| 1788447859 | 13.33° C | 68% | 1015 hPa | 0 mm | - | - | - |
| 1788447558 | 12.78° C | 73% | 1015 hPa | 0 mm | - | - | - |
| 1788447258 | 12.78° C | 73% | 1015 hPa | 0 mm | - | - | - |
| 1788446957 | 12.22° C | 73% | 1015 hPa | 0 mm | - | - | - |
| 1788446655 | 12.22° C | 73% | 1015 hPa | 0 mm | - | - | - |
* Rain latest hour (hover to see other rain measurements)
** Current wind speed in m/s (hover to see current wind gust speed)